QPF
0.11 0.12 0.10 0.11 0.11 0.14 0.16 0.15 0.13 0.15 0.16 0.19 0.20 0.17 0.15 0.11 0.06 0.05 0.03 0.04 0.07 0.09 0.09 0.09 0.09 0.09 0.12 0.15 0.17 0.18 0.17 0.18 0.17 0.14 0.10 0.06 0.06 0.09 0.09 0.05 0.02 0.00 0.00
0.15 0.15 0.15 0.17 0.15 0.18 0.20 0.23 0.23 0.24 0.23 0.24 0.19 0.14 0.13 0.11 0.08 0.06 0.05 0.05 0.05 0.07 0.08 0.08 0.08 0.09 0.11 0.13 0.16 0.19 0.20 0.19 0.15 0.12 0.11 0.08 0.05 0.07 0.10 0.09 0.07 0.04 0.01
0.19 0.20 0.19 0.17 0.15 0.19 0.23 0.25 0.29 0.33 0.29 0.25 0.21 0.19 0.18 0.13 0.10 0.10 0.07 0.06 0.05 0.05 0.05 0.06 0.06 0.06 0.09 0.11 0.13 0.15 0.17 0.17 0.14 0.11 0.10 0.08 0.05 0.04 0.05 0.08 0.10 0.08 0.04
0.22 0.23 0.20 0.16 0.16 0.16 0.16 0.17 0.21 0.27 0.30 0.32 0.31 0.26 0.22 0.19 0.12 0.10 0.07 0.05 0.05 0.03 0.03 0.04 0.04 0.04 0.05 0.07 0.10 0.13 0.12 0.11 0.10 0.09 0.08 0.07 0.05 0.03 0.02 0.03 0.06 0.08 0.06
0.25 0.24 0.20 0.17 0.14 0.11 0.11 0.12 0.16 0.20 0.24 0.28 0.30 0.24 0.22 0.20 0.15 0.10 0.08 0.04 0.05 0.03 0.03 0.04 0.02 0.02 0.02 0.04 0.08 0.12 0.12 0.09 0.08 0.08 0.08 0.08 0.06 0.03 0.01 0.01 0.02 0.04 0.04
0.27 0.22 0.17 0.14 0.10 0.08 0.07 0.09 0.09 0.11 0.13 0.15 0.14 0.14 0.16 0.12 0.11 0.09 0.06 0.04 0.03 0.02 0.02 0.03 0.03 0.01 0.01 0.01 0.05 0.08 0.10 0.10 0.08 0.07 0.08 0.09 0.09 0.05 0.02 0.01 0.01 0.01 0.02
0.22 0.19 0.16 0.13 0.09 0.06 0.05 0.05 0.06 0.06 0.06 0.06 0.06 0.06 0.05 0.04 0.04 0.04 0.04 0.03 0.02 0.01 0.01 0.02 0.01 0.01 0.01 0.00 0.01 0.02 0.05 0.08 0.09 0.07 0.07 0.08 0.09 0.08 0.04 0.01 0.01 0.01 0.01
0.17 0.16 0.15 0.13 0.09 0.06 0.04 0.04 0.04 0.03 0.03 0.02 0.02 0.02 0.02 0.01 0.01 0.01 0.01 0.01 0.01 0.00 0.00 0.00 0.00 0.01 0.01 0.00 0.00 0.00 0.02 0.05 0.09 0.09 0.08 0.09 0.10 0.09 0.07 0.05 0.03 0.01 0.01
0.12 0.12 0.12 0.11 0.09 0.07 0.05 0.04 0.03 0.02 0.02 0.01 0.01 0.00 0.00 0.00 0.00 0.00 0.00 0.00 0.00 0.00 0.00 0.00 0.00 0.00 0.00 0.00 0.01 0.00 0.00 0.01 0.05 0.09 0.10 0.08 0.07 0.06 0.07 0.07 0.06 0.04 0.02
0.09 0.09 0.08 0.06 0.05 0.05 0.05 0.04 0.02 0.02 0.01 0.01 0.01 0.00 0.00 0.00 0.00 0.00 0.00 0.00 0.00 0.00 0.00 0.00 0.00 0.00 0.00 0.00 0.00 0.01 0.00 0.01 0.02 0.06 0.09 0.08 0.07 0.06 0.05 0.06 0.07 0.06 0.05
0.05 0.07 0.09 0.08 0.06 0.05 0.04 0.03 0.02 0.01 0.01 0.01 0.01 0.00 0.00 0.00 0.00 0.00 0.00 0.00 0.00 0.00 0.00 0.00 0.00 0.00 0.00 0.00 0.00 0.00 0.00 0.00 0.01 0.02 0.04 0.05 0.06 0.05 0.04 0.04 0.07 0.07 0.07
0.02 0.03 0.05 0.07 0.08 0.09 0.07 0.04 0.02 0.02 0.01 0.01 0.01 0.00 0.00 0.00 0.00 0.00 0.00 0.00 0.00 0.00 0.00 0.00 0.00 0.00 0.00 0.00 0.00 0.00 0.00 0.00 0.00 0.01 0.02 0.02 0.04 0.04 0.04 0.05 0.07 0.08 0.09
0.01 0.01 0.02 0.03 0.05 0.07 0.09 0.09 0.06 0.04 0.03 0.02 0.01 0.01 0.00 0.00 0.00 0.00 0.00 0.00 0.00 0.00 0.00 0.00 0.00 0.00 0.00 0.00 0.00 0.00 0.00 0.00 0.01 0.01 0.01 0.01 0.02 0.03 0.03 0.05 0.07 0.10 0.11
0.00 0.00 0.00 0.01 0.02 0.03 0.06 0.08 0.09 0.09 0.07 0.05 0.03 0.02 0.01 0.00 0.00 0.00 0.00 0.00 0.00 0.00 0.00 0.00 0.00 0.00 0.00 0.00 0.00 0.00 0.01 0.01 0.01 0.01 0.01 0.01 0.02 0.03 0.05 0.06 0.07 0.08 0.11
0.00 0.00 0.00 0.00 0.01 0.01 0.03 0.05 0.08 0.10 0.10 0.08 0.06 0.05 0.03 0.02 0.01 0.01 0.00 0.00 0.00 0.00 0.00 0.00 0.00 0.00 0.00 0.00 0.00 0.00 0.01 0.01 0.01 0.01 0.02 0.02 0.03 0.04 0.07 0.09 0.09 0.11 0.14
0.00 0.00 0.00 0.00 0.00 0.00 0.01 0.02 0.05 0.09 0.11 0.13 0.13 0.11 0.08 0.06 0.04 0.02 0.01 0.01 0.00 0.00 0.00 0.00 0.00 0.00 0.00 0.00 0.00 0.00 0.00 0.01 0.01 0.02 0.02 0.04 0.05 0.05 0.07 0.08 0.11 0.14 0.16
0.00 0.00 0.00 0.00 0.00 0.00 0.00 0.01 0.02 0.05 0.10 0.15 0.19 0.19 0.15 0.12 0.10 0.06 0.04 0.02 0.01 0.01 0.00 0.00 0.00 0.00 0.01 0.01 0.01 0.00 0.00 0.00 0.01 0.02 0.03 0.05 0.06 0.07 0.08 0.09 0.12 0.14 0.15
0.00 0.00 0.00 0.00 0.00 0.00 0.00 0.00 0.01 0.03 0.06 0.11 0.18 0.24 0.26 0.22 0.16 0.12 0.09 0.05 0.02 0.01 0.01 0.01 0.01 0.01 0.01 0.02 0.01 0.01 0.00 0.00 0.01 0.03 0.04 0.06 0.08 0.08 0.08 0.07 0.07 0.08 0.09
0.00 0.00 0.00 0.00 0.00 0.00 0.00 0.00 0.00 0.01 0.04 0.07 0.12 0.19 0.27 0.31 0.28 0.21 0.15 0.12 0.08 0.04 0.02 0.01 0.01 0.01 0.01 0.01 0.01 0.01 0.01 0.01 0.01 0.02 0.04 0.06 0.08 0.08 0.07 0.07 0.05 0.04 0.03
0.00 0.01 0.01 0.01 0.01 0.00 0.00 0.00 0.00 0.01 0.02 0.04 0.07 0.12 0.19 0.28 0.35 0.34 0.26 0.19 0.15 0.10 0.05 0.03 0.02 0.01 0.02 0.02 0.02 0.01 0.01 0.01 0.01 0.01 0.02 0.04 0.05 0.06 0.06 0.05 0.04 0.02 0.02
0.01 0.01 0.01 0.01 0.01 0.01 0.00 0.00 0.01 0.00 0.01 0.02 0.03 0.06 0.11 0.17 0.26 0.35 0.36 0.29 0.23 0.16 0.09 0.05 0.03 0.02 0.02 0.02 0.02 0.01 0.01 0.01 0.02 0.02 0.01 0.02 0.02 0.02 0.03 0.03 0.03 0.02 0.01
0.02 0.03 0.03 0.03 0.03 0.01 0.00 0.00 0.01 0.01 0.01 0.02 0.02 0.03 0.05 0.10 0.16 0.23 0.30 0.34 0.31 0.24 0.16 0.09 0.05 0.03 0.03 0.02 0.01 0.01 0.01 0.01 0.02 0.03 0.02 0.02 0.01 0.01 0.01 0.01 0.01 0.01 0.01
0.04 0.05 0.06 0.06 0.06 0.04 0.02 0.01 0.00 0.02 0.03 0.03 0.03 0.03 0.02 0.04 0.09 0.15 0.20 0.25 0.28 0.25 0.19 0.13 0.10 0.06 0.05 0.03 0.02 0.01 0.01 0.01 0.01 0.01 0.02 0.03 0.02 0.01 0.01 0.00 0.00 0.00 0.00
0.07 0.07 0.07 0.08 0.08 0.07 0.04 0.02 0.01 0.02 0.04 0.04 0.04 0.03 0.02 0.03 0.04 0.08 0.15 0.18 0.20 0.19 0.16 0.11 0.09 0.09 0.09 0.07 0.04 0.02 0.02 0.02 0.03 0.02 0.02 0.04 0.04 0.02 0.01 0.00 0.00 0.00 0.00
0.08 0.09 0.10 0.10 0.10 0.09 0.06 0.03 0.02 0.04 0.05 0.04 0.04 0.03 0.02 0.02 0.02 0.03 0.08 0.13 0.15 0.14 0.13 0.13 0.10 0.09 0.08 0.07 0.05 0.03 0.03 0.04 0.06 0.05 0.02 0.02 0.03 0.02 0.01 0.01 0.00 0.00 0.00
0.09 0.10 0.10 0.11 0.12 0.11 0.08 0.04 0.03 0.05 0.06 0.05 0.05 0.04 0.01 0.01 0.01 0.01 0.04 0.08 0.11 0.12 0.10 0.09 0.09 0.07 0.05 0.04 0.04 0.04 0.04 0.04 0.05 0.06 0.04 0.02 0.02 0.02 0.01 0.01 0.00 0.00 0.00
MSLP
1011.79 1011.86 1011.90 1011.93 1011.96 1012.02 1012.12 1012.25 1012.42 1012.61 1012.79 1012.94 1013.06 1013.14 1013.18 1013.22 1013.28 1013.37 1013.53 1013.75 1014.04 1014.37 1014.73 1015.08 1015.42 1015.72 1016.00 1016.25 1016.49 1016.74 1017.01 1017.29 1017.61 1017.95 1018.30 1018.66 1019.01 1019.36 1019.69 1020.01 1020.32 1020.63 1020.92
1011.43 1011.44 1011.44 1011.43 1011.43 1011.46 1011.54 1011.65 1011.81 1011.99 1012.17 1012.33 1012.46 1012.54 1012.59 1012.62 1012.66 1012.73 1012.86 1013.06 1013.32 1013.64 1014.00 1014.38 1014.74 1015.09 1015.40 1015.68 1015.95 1016.21 1016.48 1016.77 1017.08 1017.42 1017.77 1018.14 1018.51 1018.88 1019.24 1019.59 1019.93 1020.27 1020.59
1011.00 1010.96 1010.91 1010.87 1010.86 1010.88 1010.95 1011.07 1011.23 1011.42 1011.61 1011.78 1011.91 1011.99 1012.03 1012.05 1012.06 1012.09 1012.18 1012.33 1012.55 1012.85 1013.20 1013.58 1013.96 1014.34 1014.69 1015.02 1015.32 1015.61 1015.90 1016.20 1016.51 1016.85 1017.20 1017.57 1017.95 1018.33 1018.70 1019.08 1019.44 1019.80 1020.16
1010.52 1010.42 1010.34 1010.29 1010.27 1010.31 1010.39 1010.53 1010.70 1010.90 1011.10 1011.27 1011.41 1011.49 1011.53 1011.52 1011.50 1011.49 1011.52 1011.61 1011.78 1012.03 1012.34 1012.70 1013.10 1013.50 1013.88 1014.25 1014.60 1014.93 1015.25 1015.57 1015.90 1016.25 1016.60 1016.97 1017.34 1017.72 1018.11 1018.49 1018.87 1019.25 1019.64
1010.03 1009.88 1009.78 1009.73 1009.73 1009.79 1009.89 1010.04 1010.23 1010.43 1010.64 1010.82 1010.96 1011.04 1011.07 1011.05 1011.00 1010.94 1010.92 1010.95 1011.05 1011.24 1011.50 1011.83 1012.20 1012.60 1013.01 1013.41 1013.80 1014.17 1014.53 1014.89 1015.25 1015.61 1015.97 1016.34 1016.71 1017.09 1017.47 1017.85 1018.24 1018.64 1019.05
1009.59 1009.42 1009.31 1009.27 1009.29 1009.36 1009.48 1009.64 1009.83 1010.03 1010.23 1010.41 1010.54 1010.63 1010.66 1010.63 1010.57 1010.49 1010.42 1010.40 1010.43 1010.55 1010.74 1011.01 1011.34 1011.72 1012.13 1012.55 1012.96 1013.37 1013.78 1014.17 1014.56 1014.94 1015.32 1015.69 1016.06 1016.43 1016.81 1017.19 1017.58 1017.99 1018.42
1009.27 1009.09 1009.00 1008.97 1009.01 1009.09 1009.20 1009.35 1009.51 1009.69 1009.87 1010.03 1010.17 1010.26 1010.29 1010.28 1010.22 1010.13 1010.05 1009.98 1009.96 1010.01 1010.13 1010.33 1010.60 1010.94 1011.32 1011.73 1012.16 1012.59 1013.02 1013.45 1013.86 1014.26 1014.65 1015.03 1015.40 1015.76 1016.13 1016.51 1016.90 1017.32 1017.76
1009.13 1008.97 1008.89 1008.87 1008.91 1008.98 1009.07 1009.18 1009.30 1009.44 1009.57 1009.71 1009.82 1009.92 1009.97 1009.98 1009.95 1009.88 1009.79 1009.71 1009.65 1009.64 1009.70 1009.83 1010.04 1010.32 1010.65 1011.03 1011.44 1011.87 1012.31 1012.74 1013.16 1013.57 1013.96 1014.34 1014.71 1015.07 1015.44 1015.81 1016.21 1016.63 1017.08
1009.19 1009.04 1008.98 1008.97 1009.00 1009.04 1009.09 1009.14 1009.20 1009.26 1009.34 1009.43 1009.53 1009.62 1009.69 1009.73 1009.73 1009.69 1009.63 1009.55 1009.48 1009.44 1009.45 1009.53 1009.67 1009.88 1010.16 1010.49 1010.86 1011.26 1011.67 1012.08 1012.49 1012.89 1013.27 1013.64 1014.00 1014.36 1014.72 1015.11 1015.51 1015.94 1016.39
1009.41 1009.29 1009.23 1009.22 1009.23 1009.23 1009.23 1009.21 1009.19 1009.18 1009.19 1009.23 1009.29 1009.36 1009.44 1009.51 1009.55 1009.55 1009.52 1009.46 1009.40 1009.35 1009.33 1009.37 1009.46 1009.62 1009.84 1010.11 1010.43 1010.77 1011.13 1011.50 1011.86 1012.22 1012.57 1012.92 1013.27 1013.63 1014.00 1014.39 1014.81 1015.25 1015.70
1009.72 1009.61 1009.56 1009.53 1009.51 1009.48 1009.42 1009.34 1009.24 1009.16 1009.11 1009.09 1009.11 1009.16 1009.24 1009.31 1009.37 1009.40 1009.40 1009.37 1009.33 1009.29 1009.27 1009.28 1009.35 1009.47 1009.65 1009.87 1010.12 1010.40 1010.69 1010.99 1011.29 1011.59 1011.90 1012.22 1012.55 1012.90 1013.28 1013.69 1014.12 1014.58 1015.05
1009.99 1009.89 1009.84 1009.80 1009.76 1009.69 1009.59 1009.46 1009.32 1009.18 1009.07 1009.00 1008.98 1009.01 1009.06 1009.13 1009.18 1009.22 1009.24 1009.22 1009.20 1009.17 1009.17 1009.19 1009.26 1009.37 1009.52 1009.70 1009.91 1010.13 1010.35 1010.57 1010.80 1011.04 1011.29 1011.56 1011.87 1012.21 1012.60 1013.03 1013.49 1013.96 1014.45
1010.13 1010.03 1009.97 1009.93 1009.88 1009.80 1009.68 1009.53 1009.36 1009.20 1009.06 1008.96 1008.90 1008.89 1008.91 1008.94 1008.97 1008.99 1008.99 1008.98 1008.96 1008.96 1008.97 1009.02 1009.11 1009.24 1009.40 1009.57 1009.75 1009.93 1010.10 1010.26 1010.41 1010.58 1010.77 1011.01 1011.29 1011.63 1012.02 1012.46 1012.94 1013.45 1013.95
1010.07 1009.96 1009.90 1009.85 1009.80 1009.73 1009.62 1009.48 1009.33 1009.17 1009.03 1008.92 1008.84 1008.79 1008.76 1008.75 1008.73 1008.70 1008.67 1008.64 1008.61 1008.62 1008.66 1008.75 1008.88 1009.05 1009.25 1009.44 1009.63 1009.80 1009.94 1010.05 1010.16 1010.27 1010.42 1010.61 1010.86 1011.19 1011.59 1012.05 1012.54 1013.06 1013.57
1009.78 1009.67 1009.60 1009.55 1009.51 1009.45 1009.38 1009.28 1009.17 1009.05 1008.94 1008.84 1008.75 1008.68 1008.61 1008.54 1008.46 1008.37 1008.29 1008.22 1008.18 1008.18 1008.25 1008.38 1008.57 1008.80 1009.06 1009.31 1009.54 1009.73 1009.87 1009.97 1010.06 1010.14 1010.25 1010.41 1010.65 1010.96 1011.36 1011.82 1012.32 1012.84 1013.36
1009.31 1009.17 1009.09 1009.04 1009.01 1008.98 1008.95 1008.91 1008.85 1008.79 1008.73 1008.66 1008.59 1008.51 1008.42 1008.31 1008.17 1008.03 1007.89 1007.77 1007.71 1007.71 1007.79 1007.96 1008.21 1008.51 1008.84 1009.17 1009.47 1009.71 1009.90 1010.02 1010.12 1010.20 1010.30 1010.45 1010.67 1010.97 1011.36 1011.81 1012.30 1012.82 1013.32
1008.71 1008.54 1008.43 1008.37 1008.35 1008.34 1008.34 1008.35 1008.35 1008.35 1008.35 1008.34 1008.31 1008.25 1008.16 1008.03 1007.87 1007.69 1007.51 1007.36 1007.27 1007.26 1007.36 1007.56 1007.86 1008.23 1008.64 1009.05 1009.43 1009.75 1010.00 1010.19 1010.32 1010.43 1010.55 1010.70 1010.92 1011.21 1011.58 1012.02 1012.49 1012.98 1013.46
1008.06 1007.85 1007.72 1007.63 1007.59 1007.58 1007.59 1007.62 1007.67 1007.72 1007.78 1007.83 1007.86 1007.85 1007.80 1007.70 1007.55 1007.37 1007.19 1007.02 1006.92 1006.91 1007.01 1007.22 1007.55 1007.98 1008.45 1008.94 1009.40 1009.81 1010.15 1010.42 1010.62 1010.79 1010.95 1011.13 1011.36 1011.65 1012.01 1012.42 1012.87 1013.33 1013.78
1007.42 1007.18 1006.99 1006.86 1006.78 1006.74 1006.73 1006.76 1006.82 1006.90 1007.01 1007.13 1007.23 1007.30 1007.33 1007.30 1007.21 1007.07 1006.92 1006.77 1006.67 1006.66 1006.76 1006.98 1007.32 1007.77 1008.28 1008.83 1009.36 1009.86 1010.29 1010.65 1010.95 1011.20 1011.42 1011.66 1011.92 1012.23 1012.58 1012.98 1013.40 1013.83 1014.24
1006.82 1006.54 1006.30 1006.11 1005.96 1005.86 1005.80 1005.79 1005.83 1005.93 1006.07 1006.25 1006.43 1006.60 1006.74 1006.81 1006.82 1006.77 1006.68 1006.58 1006.51 1006.50 1006.60 1006.80 1007.13 1007.58 1008.11 1008.68 1009.27 1009.84 1010.37 1010.83 1011.23 1011.58 1011.90 1012.21 1012.53 1012.88 1013.25 1013.64 1014.04 1014.44 1014.83
1006.26 1005.93 1005.63 1005.38 1005.15 1004.97 1004.84 1004.77 1004.77 1004.86 1005.02 1005.25 1005.52 1005.79 1006.05 1006.25 1006.39 1006.45 1006.46 1006.43 1006.39 1006.40 1006.48 1006.66 1006.96 1007.37 1007.89 1008.47 1009.09 1009.72 1010.32 1010.89 1011.40 1011.88 1012.31 1012.72 1013.13 1013.53 1013.93 1014.34 1014.75 1015.14 1015.51
1005.69 1005.33 1004.98 1004.66 1004.36 1004.10 1003.89 1003.76 1003.71 1003.78 1003.95 1004.21 1004.55 1004.93 1005.30 1005.64 1005.91 1006.10 1006.21 1006.25 1006.26 1006.28 1006.34 1006.49 1006.74 1007.11 1007.59 1008.16 1008.79 1009.46 1010.14 1010.81 1011.44 1012.04 1012.60 1013.13 1013.64 1014.13 1014.60 1015.05 1015.47 1015.87 1016.24
1005.09 1004.70 1004.32 1003.96 1003.61 1003.28 1003.01 1002.82 1002.73 1002.77 1002.95 1003.24 1003.64 1004.09 1004.57 1005.02 1005.41 1005.70 1005.90 1006.01 1006.06 1006.09 1006.13 1006.24 1006.44 1006.76 1007.19 1007.74 1008.38 1009.08 1009.83 1010.59 1011.34 1012.07 1012.76 1013.43 1014.05 1014.64 1015.18 1015.69 1016.16 1016.58 1016.97
1004.43 1004.03 1003.65 1003.27 1002.90 1002.55 1002.26 1002.04 1001.93 1001.95 1002.12 1002.43 1002.86 1003.37 1003.91 1004.43 1004.90 1005.27 1005.52 1005.68 1005.75 1005.78 1005.81 1005.88 1006.04 1006.32 1006.72 1007.25 1007.89 1008.63 1009.44 1010.28 1011.14 1011.99 1012.81 1013.59 1014.33 1015.02 1015.65 1016.23 1016.74 1017.20 1017.60
1003.71 1003.34 1002.98 1002.62 1002.27 1001.95 1001.67 1001.46 1001.35 1001.38 1001.55 1001.86 1002.29 1002.81 1003.37 1003.91 1004.40 1004.79 1005.07 1005.24 1005.33 1005.35 1005.37 1005.42 1005.56 1005.81 1006.20 1006.73 1007.39 1008.17 1009.03 1009.95 1010.89 1011.84 1012.76 1013.65 1014.48 1015.26 1015.96 1016.60 1017.16 1017.65 1018.08
1002.98 1002.65 1002.34 1002.04 1001.76 1001.50 1001.27 1001.11 1001.04 1001.08 1001.25 1001.55 1001.95 1002.44 1002.96 1003.47 1003.92 1004.29 1004.56 1004.71 1004.79 1004.82 1004.83 1004.89 1005.04 1005.30 1005.71 1006.26 1006.95 1007.77 1008.68 1009.65 1010.66 1011.67 1012.66 1013.61 1014.50 1015.33 1016.08 1016.76 1017.36 1017.87 1018.32
Thickness
5744 5743 5740 5739 5740 5741 5741 5740 5741 5741 5740 5739 5738 5738 5738 5737 5738 5740 5740 5738 5736 5734 5733 5733 5732 5732 5732 5732 5731 5731 5730 5728 5727 5726 5726 5725 5725 5725 5725 5725 5724 5723 5722
5738 5736 5734 5734 5736 5738 5737 5737 5738 5738 5738 5738 5737 5738 5738 5737 5736 5737 5738 5738 5737 5735 5733 5733 5732 5732 5732 5732 5731 5731 5730 5729 5728 5728 5727 5726 5726 5725 5725 5725 5724 5724 5723
5731 5729 5729 5729 5733 5734 5734 5734 5734 5733 5734 5735 5736 5737 5737 5737 5737 5737 5737 5738 5739 5737 5736 5735 5734 5733 5732 5731 5731 5730 5729 5729 5728 5728 5728 5727 5726 5726 5725 5725 5725 5724 5724
5723 5722 5723 5725 5728 5730 5731 5732 5732 5731 5731 5732 5733 5734 5736 5735 5737 5737 5738 5738 5739 5740 5739 5737 5735 5734 5733 5732 5731 5730 5730 5729 5729 5729 5728 5728 5727 5726 5726 5726 5725 5725 5724
5719 5718 5718 5720 5723 5725 5727 5729 5732 5729 5728 5729 5730 5732 5733 5734 5736 5738 5739 5740 5740 5740 5741 5740 5736 5735 5733 5733 5732 5731 5730 5730 5729 5729 5728 5727 5727 5727 5726 5726 5726 5726 5725
5713 5714 5713 5714 5717 5721 5723 5725 5725 5725 5726 5727 5730 5733 5732 5734 5735 5736 5737 5740 5741 5740 5740 5741 5738 5737 5735 5734 5733 5732 5731 5731 5730 5729 5728 5728 5727 5727 5727 5726 5726 5726 5726
5710 5709 5708 5709 5711 5715 5718 5720 5720 5720 5721 5724 5723 5724 5729 5732 5733 5734 5736 5739 5741 5741 5740 5740 5739 5740 5740 5735 5733 5733 5732 5732 5731 5730 5728 5727 5727 5726 5725 5725 5725 5725 5725
5705 5706 5704 5705 5707 5709 5711 5712 5712 5714 5718 5720 5718 5717 5719 5724 5728 5734 5735 5735 5737 5739 5740 5740 5739 5738 5738 5740 5739 5735 5732 5732 5731 5730 5729 5727 5726 5725 5724 5724 5724 5724 5725
5698 5699 5699 5701 5702 5703 5704 5704 5705 5705 5708 5713 5715 5715 5715 5717 5727 5730 5731 5733 5733 5735 5738 5740 5739 5739 5738 5739 5740 5737 5735 5733 5732 5731 5729 5728 5726 5725 5724 5723 5722 5722 5723
5688 5689 5690 5692 5693 5695 5696 5698 5701 5701 5700 5703 5708 5710 5712 5716 5715 5721 5725 5730 5730 5730 5734 5737 5738 5738 5737 5738 5739 5737 5735 5733 5732 5732 5730 5729 5727 5726 5724 5722 5721 5720 5721
5677 5678 5679 5680 5682 5684 5687 5689 5692 5693 5696 5697 5701 5704 5705 5706 5708 5710 5716 5722 5725 5729 5732 5732 5735 5737 5738 5738 5738 5738 5735 5733 5732 5731 5730 5729 5728 5726 5724 5723 5721 5720 5719
5667 5667 5667 5668 5670 5672 5675 5678 5682 5685 5688 5691 5694 5698 5700 5702 5705 5707 5709 5711 5717 5725 5728 5730 5732 5735 5737 5737 5737 5735 5733 5732 5731 5731 5730 5728 5727 5726 5724 5723 5721 5719 5719
5655 5655 5655 5655 5657 5659 5662 5666 5670 5675 5679 5681 5684 5690 5695 5700 5704 5706 5706 5709 5712 5719 5721 5726 5730 5732 5733 5733 5733 5730 5731 5730 5730 5730 5728 5727 5726 5725 5723 5722 5721 5719 5717
5643 5643 5641 5642 5644 5646 5650 5653 5658 5663 5668 5672 5677 5681 5686 5692 5697 5699 5702 5704 5704 5710 5716 5720 5725 5726 5726 5727 5726 5726 5731 5728 5728 5728 5727 5725 5723 5722 5721 5720 5719 5717 5715
5631 5631 5630 5631 5631 5634 5636 5640 5645 5649 5655 5661 5667 5672 5677 5683 5688 5693 5697 5700 5700 5703 5710 5713 5718 5719 5722 5722 5721 5724 5726 5724 5724 5725 5724 5722 5720 5719 5717 5716 5715 5713 5711
5616 5616 5617 5618 5620 5622 5624 5626 5631 5636 5641 5647 5653 5660 5666 5673 5679 5684 5689 5693 5696 5698 5704 5711 5711 5715 5715 5718 5715 5717 5718 5718 5718 5719 5718 5717 5716 5714 5712 5711 5709 5707 5705
5602 5603 5603 5605 5607 5609 5611 5614 5618 5622 5627 5633 5639 5646 5653 5660 5666 5673 5679 5684 5688 5692 5693 5702 5707 5708 5707 5709 5710 5711 5713 5713 5712 5710 5711 5710 5709 5707 5705 5703 5701 5699 5697
5587 5587 5588 5589 5592 5595 5598 5601 5604 5609 5614 5619 5625 5631 5638 5646 5653 5660 5667 5674 5679 5684 5687 5690 5696 5700 5700 5702 5702 5703 5705 5704 5703 5700 5701 5700 5699 5698 5695 5694 5692 5690 5688
5570 5569 5570 5572 5575 5578 5582 5587 5591 5595 5600 5606 5613 5618 5625 5631 5638 5646 5654 5662 5669 5675 5680 5684 5688 5693 5695 5695 5693 5693 5693 5693 5692 5691 5690 5689 5688 5686 5684 5682 5681 5680 5678
5551 5551 5552 5554 5557 5561 5565 5570 5575 5581 5586 5592 5599 5605 5612 5618 5624 5631 5640 5648 5657 5664 5670 5676 5680 5684 5687 5688 5687 5684 5682 5683 5682 5681 5679 5678 5676 5674 5672 5671 5670 5668 5667
5532 5532 5533 5536 5540 5544 5550 5555 5559 5565 5571 5577 5585 5591 5600 5606 5611 5617 5625 5634 5642 5650 5659 5666 5672 5677 5680 5680 5680 5679 5676 5673 5671 5672 5671 5669 5667 5665 5662 5659 5658 5657 5657
5515 5514 5516 5519 5523 5530 5536 5539 5544 5550 5557 5563 5571 5579 5586 5592 5597 5603 5612 5621 5627 5636 5647 5655 5664 5671 5675 5678 5678 5675 5669 5668 5664 5661 5663 5659 5659 5657 5654 5650 5647 5647 5646
5500 5499 5500 5503 5508 5514 5518 5522 5527 5535 5544 5550 5557 5564 5574 5584 5587 5594 5600 5607 5616 5623 5632 5643 5652 5662 5669 5673 5673 5669 5667 5667 5663 5656 5655 5649 5648 5646 5642 5637 5636 5637 5636
5487 5486 5487 5490 5494 5501 5504 5508 5514 5521 5532 5540 5545 5551 5558 5568 5577 5583 5591 5600 5607 5615 5623 5632 5643 5652 5660 5666 5667 5667 5664 5656 5651 5648 5648 5641 5637 5635 5632 5627 5625 5626 5626
5479 5478 5478 5481 5484 5490 5493 5497 5502 5513 5522 5530 5537 5543 5549 5557 5564 5570 5581 5591 5600 5607 5615 5623 5631 5639 5647 5655 5659 5658 5653 5649 5642 5637 5638 5635 5628 5625 5622 5618 5615 5616 5616
5475 5474 5474 5476 5479 5484 5487 5490 5494 5507 5516 5524 5530 5536 5540 5548 5553 5558 5569 5580 5589 5600 5608 5615 5622 5629 5637 5644 5649 5653 5653 5648 5641 5632 5631 5630 5625 5623 5614 5610 5608 5608 5607